User: anonymous
Location: Mount Wilson Observatory
(34.2257°N, 118.0571°W)
Time: 22:14:33
(UTC-07:00)
Language:

ATLAS 3B CENTAUR R/B - Orbit

View from above orbital plane
View from above orbital plane
View from above satellite
View from above satellite

Ground track
Ground track

The orbit data is extracted from the following two-line orbital elements,

1 28118U 03057B   14240.29862684  .00080624  00000-0  18650-2 0  7159
2 28118 028.1480 340.2731 3850357 340.5835 008.0781 07.79586251201203
Epoch (UTC): 28 August 2014 07:10:01
Eccentricity: 0.3850357
inclination: 28.1480°
perigee height: 229 km
apogee height: 8502 km
right ascension of ascending node: 340.2731°
argument of perigee: 340.5835°
revolutions per day: 7.79586251
mean anomaly at epoch: 8.0781°
orbit number at epoch: 20120

The dashed part of the orbit path shows where the satellite is in the earth's shadow,  

DLR